Las Cruces, NM

6:58 AM MST on December 07, 2016 (GMT -0700)
Las Cruces International

Weather History for KLRU - July, 2015

Change the Weather History Date:

Saturday, July 4, 2015

  Actual Average Record
Temperature  
Mean Temperature 80 °F -  
Max Temperature 92 °F 93 °F 102 °F (2005)
Min Temperature 67 °F 68 °F 64 °F (2002)
Cooling Degree Days 15    
Growing Degree Days 30 (Base 50)    
Moisture  
Dew Point 61 °F    
Average Humidity 60    
Maximum Humidity 88    
Minimum Humidity 25    
Precipitation  
Precipitation 0.03 in - - ()
Sea Level Pressure  
Sea Level Pressure 30.07 in    
Wind  
Wind Speed 4 mph (SE)    
Max Wind Speed 16 mph    
Max Gust Speed 23 mph    
Visibility 10 miles    
Events Rain , Thunderstorm    
Averages and records for this station are not official NWS values.
T = Trace of Precipitation, MM = Missing Value Source: NWS Daily Summary

Daily Weather History Graph

Daily Weather History Graph

Search for Another Location

Airport or City:

Trip Planner

Search our weather history database for the weather conditions in past years. The results will help you decide how hot, cold, wet, or windy it might be!

Date:

Astronomy

Jul. 04, 2015 Rise Set
Actual Time 6:05 AM MDT 8:18 PM MDT
Civil Twilight 5:37 AM MDT 8:46 PM MDT
Nautical Twilight 5:03 AM MDT 9:20 PM MDT
Astronomical Twilight 4:25 AM MDT 9:58 PM MDT
Moon 10:24 PM MDT (7/4) 8:54 AM MDT (7/4)
Length of Visible Light 15h 08m
Length of Day
14h 12m
Waning Gibbous, 91% of the Moon is Illuminated
Jul 4
Waning Gibbous
Jul 8
Last Quarter
Jul 15
New
Jul 23
First Quarter
Jul 31
Full

Hourly Weather History & Observations

Time (MDT) Temp. Heat Index Dew Point Humidity Pressure Visibility Wind Dir Wind Speed Gust Speed Precip Events Conditions
12:15 AM 72.9 °F - 65.3 °F 77% 30.08 in 10.0 mi SW 3.5 mph - N/A   Mostly Cloudy
12:35 AM 73.4 °F - 65.5 °F 76% 30.09 in 10.0 mi Calm Calm - N/A   Overcast
12:55 AM 73.0 °F - 66.6 °F 80% 30.10 in 10.0 mi West 5.8 mph - N/A   Overcast
1:15 AM 73.4 °F - 64.0 °F 72% 30.09 in 10.0 mi SW 5.8 mph - N/A   Overcast
1:35 AM 73.4 °F - 64.2 °F 73% 30.09 in 10.0 mi SW 3.5 mph - N/A   Mostly Cloudy
1:55 AM 73.6 °F - 64.0 °F 72% 30.08 in 10.0 mi SW 4.6 mph - N/A   Scattered Clouds
2:15 AM 73.6 °F - 64.4 °F 73% 30.08 in 10.0 mi Calm Calm - N/A Thunderstorm Scattered Clouds
2:35 AM 72.7 °F - 66.4 °F 81% 30.08 in 10.0 mi Calm Calm - N/A   Scattered Clouds
2:55 AM 72.5 °F - 65.7 °F 79% 30.08 in 10.0 mi Calm Calm - N/A   Mostly Cloudy
3:15 AM 72.3 °F - 65.1 °F 78% 30.08 in 10.0 mi NW 3.5 mph - N/A   Overcast
3:35 AM 71.8 °F - 64.6 °F 78% 30.08 in 10.0 mi WNW 3.5 mph - N/A   Overcast
3:55 AM 71.6 °F - 65.1 °F 80% 30.08 in 10.0 mi Calm Calm - N/A   Overcast
4:15 AM 71.6 °F - 66.0 °F 82% 30.08 in 10.0 mi ENE 3.5 mph - N/A   Overcast
4:35 AM 71.6 °F - 65.7 °F 81% 30.08 in 10.0 mi Calm Calm - N/A   Overcast
4:55 AM 71.1 °F - 66.2 °F 85% 30.08 in 10.0 mi NNE 3.5 mph - N/A   Scattered Clouds
5:15 AM 70.3 °F - 65.5 °F 85% 30.08 in 10.0 mi East 4.6 mph - N/A   Scattered Clouds
5:35 AM 70.0 °F - 65.5 °F 86% 30.08 in 10.0 mi East 3.5 mph - N/A   Clear
5:55 AM 70.2 °F - 65.5 °F 85% 30.09 in 10.0 mi East 3.5 mph - N/A   Clear
6:15 AM 69.8 °F - 65.7 °F 87% 30.09 in 10.0 mi ENE 4.6 mph - N/A   Scattered Clouds
6:35 AM 70.7 °F - 65.1 °F 82% 30.09 in 10.0 mi East 3.5 mph - N/A   Clear
6:55 AM 72.1 °F - 64.9 °F 78% 30.09 in 10.0 mi East 4.6 mph - N/A   Clear
7:15 AM 73.0 °F - 64.2 °F 74% 30.11 in 10.0 mi ESE 3.5 mph - N/A   Clear
7:35 AM 74.1 °F - 63.9 °F 70% 30.11 in 10.0 mi Calm Calm - N/A   Clear
7:55 AM 75.2 °F - 63.5 °F 67% 30.11 in 10.0 mi East 4.6 mph - N/A   Clear
8:15 AM 74.8 °F - 63.3 °F 67% 30.11 in 10.0 mi Calm Calm - N/A   Clear
8:35 AM 76.6 °F - 63.3 °F 63% 30.11 in 10.0 mi ESE 4.6 mph - N/A   Clear
8:55 AM 76.5 °F - 61.5 °F 60% 30.12 in 10.0 mi Calm Calm - N/A   Clear
9:15 AM 77.7 °F - 61.0 °F 56% 30.12 in 10.0 mi SE 4.6 mph - N/A   Clear
9:35 AM 78.1 °F - 61.5 °F 57% 30.12 in 10.0 mi SSE 6.9 mph - N/A   Clear
9:55 AM 79.0 °F - 61.5 °F 55% 30.12 in 10.0 mi South 6.9 mph - N/A   Clear
10:15 AM 79.2 °F - 61.7 °F 55% 30.12 in 10.0 mi ESE 4.6 mph - N/A   Scattered Clouds
10:35 AM 80.6 °F 81.6 °F 61.7 °F 52% 30.12 in 10.0 mi SSE 3.5 mph - N/A   Clear
10:55 AM 80.4 °F 81.4 °F 61.2 °F 52% 30.12 in 10.0 mi Calm Calm - N/A   Clear
11:15 AM 81.5 °F 82.4 °F 61.9 °F 51% 30.11 in 10.0 mi SSE 3.5 mph - N/A   Clear
11:35 AM 82.6 °F 83.1 °F 61.0 °F 48% 30.11 in 10.0 mi East 3.5 mph - N/A   Clear
11:55 AM 83.1 °F 83.5 °F 61.2 °F 47% 30.10 in 10.0 mi Calm Calm - N/A   Clear
12:15 PM 82.6 °F 82.9 °F 60.3 °F 47% 30.10 in 10.0 mi Calm Calm - N/A   Clear
12:35 PM 84.2 °F 84.4 °F 60.4 °F 45% 30.08 in 10.0 mi North 4.6 mph - N/A   Clear
12:55 PM 85.1 °F 84.8 °F 59.5 °F 42% 30.08 in 10.0 mi South 3.5 mph - N/A   Clear
1:15 PM 85.6 °F 85.0 °F 58.6 °F 40% 30.07 in 10.0 mi SSW 3.5 mph - N/A Thunderstorm Clear
1:35 PM 88.3 °F 86.9 °F 56.8 °F 34% 30.05 in 10.0 mi SSE 5.8 mph - N/A   Clear
1:55 PM 86.5 °F 85.3 °F 56.8 °F 36% 30.04 in 10.0 mi SW 3.5 mph - N/A   Clear
2:15 PM 87.3 °F 85.7 °F 55.4 °F 34% 30.03 in 10.0 mi Calm Calm - N/A   Clear
2:35 PM 88.3 °F 86.5 °F 55.2 °F 32% 30.02 in 10.0 mi Calm Calm - N/A   Scattered Clouds
2:55 PM 90.3 °F 88.3 °F 54.5 °F 30% 30.01 in 10.0 mi SE 3.5 mph - N/A   Mostly Cloudy
3:15 PM 90.7 °F 88.5 °F 54.5 °F 29% 30.01 in 10.0 mi ENE 6.9 mph - N/A Thunderstorm Scattered Clouds
3:35 PM 90.3 °F 87.9 °F 53.2 °F 28% 30.00 in 10.0 mi ENE 6.9 mph - N/A   Scattered Clouds
3:55 PM 89.6 °F - 52.7 °F 28% 29.99 in 10.0 mi SE 4.6 mph - N/A   Scattered Clouds
4:15 PM 92.5 °F - 51.4 °F 25% 29.98 in 10.0 mi ESE 6.9 mph - N/A   Scattered Clouds
4:35 PM 89.1 °F - 51.1 °F 27% 29.98 in 10.0 mi South 3.5 mph - N/A   Clear
4:55 PM 84.4 °F 83.8 °F 58.3 °F 41% 29.99 in 10.0 mi West 13.8 mph - N/A   Scattered Clouds
5:15 PM 84.0 °F 83.5 °F 57.7 °F 41% 29.99 in 10.0 mi West 10.4 mph 16.1 mph N/A Thunderstorm Clear
5:35 PM 84.4 °F 83.4 °F 56.5 °F 38% 29.99 in 10.0 mi West 8.1 mph - N/A   Clear
5:55 PM 84.2 °F 83.2 °F 56.1 °F 38% 29.99 in 10.0 mi WNW 11.5 mph - N/A   Clear
6:15 PM 81.1 °F 81.1 °F 56.8 °F 43% 29.99 in 10.0 mi NW 8.1 mph - N/A   Clear
6:35 PM 82.8 °F 81.9 °F 54.5 °F 38% 29.99 in 10.0 mi NW 10.4 mph - N/A   Clear
7:55 PM 82.9 °F 82.4 °F 56.7 °F 41% 30.01 in 10.0 mi East 9.2 mph - N/A   Clear
8:15 PM 82.2 °F 82.1 °F 58.5 °F 44% 30.01 in 10.0 mi ENE 4.6 mph - N/A   Scattered Clouds
8:35 PM 81.9 °F 82.1 °F 59.4 °F 46% 30.03 in 10.0 mi ENE 4.6 mph - N/A   Mostly Cloudy
8:55 PM 81.9 °F 82.2 °F 60.1 °F 47% 30.04 in 10.0 mi South 3.5 mph - N/A   Overcast
9:15 PM 80.1 °F 80.5 °F 57.4 °F 46% 30.05 in 10.0 mi SW 9.2 mph 23.0 mph N/A   Overcast
9:35 PM 76.1 °F - 61.2 °F 60% 30.06 in 10.0 mi North 12.7 mph 16.1 mph N/A Rain , Thunderstorm Light Thunderstorms and Rain
9:55 PM 72.9 °F - 62.4 °F 70% 30.07 in 10.0 mi North 9.2 mph - N/A Rain Light Rain
10:15 PM 71.8 °F - 64.4 °F 77% 30.08 in 10.0 mi North 11.5 mph - N/A Rain Light Rain
10:35 PM 72.0 °F - 63.7 °F 75% 30.10 in 10.0 mi NNE 8.1 mph - 0.01 in Rain , Thunderstorm Light Thunderstorms and Rain
10:55 PM 72.5 °F - 63.3 °F 73% 30.12 in 7.0 mi WNW 3.5 mph - 0.03 in Rain Rain
11:15 PM 70.0 °F - 64.6 °F 83% 30.12 in 10.0 mi WNW 11.5 mph 18.4 mph N/A Rain Rain
11:35 PM 68.9 °F - 64.2 °F 85% 30.12 in 10.0 mi West 15.0 mph - N/A   Scattered Clouds
11:55 PM 67.6 °F - 64.0 °F 88% 30.12 in 10.0 mi West 16.1 mph 23.0 mph N/A   Clear